This is the latest recevied weather packets stored in our database for station/object KF0TNT. If no packets are shown the sender has not sent any weather packets the latest 10 day(s).
| Time | Temp. | Humidity | Pressure | Rain* | Wind** | Luminosity | Snow |
|---|---|---|---|---|---|---|---|
| 1777840959 | 20° C | 16% | 1017.7 hPa | 0 mm | - | 362 W/m² | - |
| 1777840656 | 20° C | 16% | 1017.9 hPa | 0 mm | - | 827 W/m² | - |
| 1777840354 | 20.56° C | 16% | 1017.6 hPa | 0 mm | - | 856 W/m² | - |
| 1777840051 | 19.44° C | 16% | 1017.7 hPa | 0 mm | - | 1044 W/m² | - |
| 1777839748 | 19.44° C | 14% | 1018 hPa | 0 mm | - | 1029 W/m² | - |
| 1777839446 | 18.89° C | 14% | 1018 hPa | 0 mm | - | 398 W/m² | - |
| 1777839143 | 18.89° C | 14% | 1018.1 hPa | 0 mm | - | 484 W/m² | - |
| 1777838839 | 19.44° C | 15% | 1018.4 hPa | 0 mm | - | 773 W/m² | - |
| 1777838536 | 18.89° C | 15% | 1018.4 hPa | 0 mm | - | 1087 W/m² | - |
| 1777838233 | 18.89° C | 16% | 1018.1 hPa | 0 mm | - | 1020 W/m² | - |
| 1777837930 | 18.89° C | 16% | 1018.4 hPa | 0 mm | - | 924 W/m² | - |
| 1777837627 | 18.89° C | 17% | 1018.6 hPa | 0 mm | - | 974 W/m² | - |
| 1777837323 | 18.33° C | 16% | 1018.4 hPa | 0 mm | - | 818 W/m² | - |
| 1777837019 | 18.89° C | 14% | 1018.2 hPa | 0 mm | - | 725 W/m² | - |
| 1777836715 | 18.89° C | 15% | 1018.7 hPa | 0 mm | - | 745 W/m² | - |
| 1777836411 | 18.33° C | 16% | 1018.7 hPa | 0 mm | - | 786 W/m² | - |
| 1777836107 | 18.89° C | 17% | 1018.7 hPa | 0 mm | - | 808 W/m² | - |
| 1777835803 | 18.89° C | 16% | 1018.7 hPa | 0 mm | - | 906 W/m² | - |
| 1777835501 | 18.89° C | 15% | 1018.9 hPa | 0 mm | - | 778 W/m² | - |
| 1777835197 | 18.89° C | 15% | 1019 hPa | 0 mm | - | 950 W/m² | - |
| 1777834894 | 18.33° C | 18% | 1018.9 hPa | 0 mm | - | 920 W/m² | - |
| 1777834591 | 18.33° C | 17% | 1019.1 hPa | 0 mm | - | 760 W/m² | - |
| 1777834286 | 17.78° C | 17% | 1019.1 hPa | 0 mm | - | 738 W/m² | - |
| 1777833981 | 17.78° C | 18% | 1019.2 hPa | 0 mm | - | 798 W/m² | - |
| 1777833678 | 17.78° C | 18% | 1019.4 hPa | 0 mm | - | 373 W/m² | - |
* Rain latest hour (hover to see other rain measurements)
** Current wind speed in m/s (hover to see current wind gust speed)